TAX73JC LPPR-EGLL

Flight info

Callsign TAX73JC
Flight time N/A
Altitude 43000
Route TURON P600 ASDEB DCT KORUL DCT FEJAC DCT JSY DCT REVTU UP87 ROXOG
Aircraft A359/H-SDE2E3GHIJ3J4J5LM1ORWXY/LB1D1

Departure

Time N/A
Airport Francisco de Sá Carneiro Airport (LPPR)

Arrival

Time 2026-05-03 21:27
Airport London Heathrow Airport (EGLL)
Time Latitude Longitude Altitude Speed Heading
2026-05-03 21:08 50.65300 -1.32812 20875 ft 396 kts 30°
2026-05-03 21:09 50.67706 -1.30735 20342 ft 392 kts 30°
2026-05-03 21:09 50.70086 -1.28681 19839 ft 388 kts 30°
2026-05-03 21:09 50.72446 -1.26643 19320 ft 385 kts 30°
2026-05-03 21:09 50.74782 -1.24623 18826 ft 381 kts 30°
2026-05-03 21:10 50.77098 -1.22609 18323 ft 379 kts 31°
2026-05-03 21:10 50.79314 -1.20401 17806 ft 375 kts 35°
2026-05-03 21:10 50.81468 -1.18110 17296 ft 371 kts 36°
2026-05-03 21:10 50.83598 -1.15855 16804 ft 367 kts 35°
2026-05-03 21:11 50.85714 -1.13637 16336 ft 363 kts 35°
2026-05-03 21:11 50.87821 -1.11440 15850 ft 361 kts 35°
2026-05-03 21:11 50.89913 -1.09265 15359 ft 359 kts 35°
2026-05-03 21:11 50.91990 -1.07107 14878 ft 356 kts 35°
2026-05-03 21:12 50.94053 -1.04965 14401 ft 353 kts 35°
2026-05-03 21:12 50.96099 -1.02840 13927 ft 350 kts 35°
2026-05-03 21:12 50.98128 -1.00730 13450 ft 347 kts 35°
2026-05-03 21:12 51.00105 -0.98557 12923 ft 344 kts 41°
2026-05-03 21:13 51.01827 -0.95908 12657 ft 352 kts 50°
2026-05-03 21:13 51.03487 -0.92974 12375 ft 360 kts 51°
2026-05-03 21:13 51.05145 -0.90008 11976 ft 358 kts 50°
2026-05-03 21:13 51.06791 -0.87067 11637 ft 356 kts 50°
2026-05-03 21:14 51.08420 -0.84160 11397 ft 344 kts 50°
2026-05-03 21:14 51.09975 -0.81384 11173 ft 329 kts 50°
2026-05-03 21:14 51.11465 -0.78722 10944 ft 315 kts 50°
2026-05-03 21:14 51.12897 -0.76164 10667 ft 305 kts 50°
2026-05-03 21:15 51.14294 -0.73668 10394 ft 302 kts 50°
2026-05-03 21:15 51.15684 -0.71178 10077 ft 298 kts 50°
2026-05-03 21:15 51.17056 -0.68720 9647 ft 296 kts 50°
2026-05-03 21:15 51.18428 -0.66265 9320 ft 297 kts 50°
2026-05-03 21:16 51.19795 -0.63809 9038 ft 295 kts 50°
2026-05-03 21:16 51.21151 -0.61367 8770 ft 294 kts 50°
2026-05-03 21:16 51.22502 -0.58932 8501 ft 292 kts 50°
2026-05-03 21:16 51.23839 -0.56523 8282 ft 284 kts 50°
2026-05-03 21:17 51.25119 -0.54219 8107 ft 271 kts 50°
2026-05-03 21:17 51.25939 -0.52746 7955 ft 265 kts 50°
2026-05-03 21:17 51.27545 -0.49853 7602 ft 256 kts 51°
2026-05-03 21:17 51.28703 -0.47765 7374 ft 253 kts 51°
2026-05-03 21:18 51.29867 -0.45617 7112 ft 251 kts 54°
2026-05-03 21:18 51.30674 -0.43224 6934 ft 247 kts 74°
2026-05-03 21:18 51.31164 -0.40581 6916 ft 249 kts 78°
2026-05-03 21:18 51.31605 -0.37909 6915 ft 249 kts 78°
2026-05-03 21:19 51.32045 -0.35236 6917 ft 249 kts 78°
2026-05-03 21:19 51.32489 -0.32570 6918 ft 249 kts 78°
2026-05-03 21:19 51.32937 -0.29897 6901 ft 249 kts 78°
2026-05-03 21:19 51.33387 -0.27225 6906 ft 249 kts 78°
2026-05-03 21:20 51.33834 -0.24560 6810 ft 248 kts 78°
2026-05-03 21:20 51.34262 -0.21896 6522 ft 246 kts 78°
2026-05-03 21:20 51.34683 -0.19242 6255 ft 246 kts 78°
2026-05-03 21:20 51.35212 -0.16661 6013 ft 244 kts 67°
2026-05-03 21:21 51.36254 -0.14472 5354 ft 255 kts 42°
2026-05-03 21:21 51.37837 -0.13223 4652 ft 265 kts 11°
2026-05-03 21:21 51.39670 -0.13326 4365 ft 256 kts 353°
2026-05-03 21:21 51.41389 -0.13711 4210 ft 243 kts 354°
2026-05-03 21:22 51.43031 -0.13985 4047 ft 232 kts 356°
2026-05-03 21:22 51.44599 -0.14182 3934 ft 220 kts 358°
2026-05-03 21:22 51.46075 -0.14341 3782 ft 206 kts 358°
2026-05-03 21:22 51.47381 -0.15016 3569 ft 198 kts 325°
2026-05-03 21:23 51.48079 -0.16840 3466 ft 196 kts 282°
2026-05-03 21:23 51.48066 -0.18986 3282 ft 192 kts 261°
2026-05-03 21:23 51.47883 -0.21071 2894 ft 186 kts 267°
2026-05-03 21:23 51.47850 -0.23103 2593 ft 179 kts 272°
2026-05-03 21:24 51.47837 -0.25070 2343 ft 174 kts 271°
2026-05-03 21:24 51.47831 -0.26975 2111 ft 168 kts 271°
2026-05-03 21:24 51.47823 -0.28783 1885 ft 159 kts 271°
2026-05-03 21:24 51.47816 -0.30489 1686 ft 147 kts 271°
2026-05-03 21:25 51.47810 -0.32060 1475 ft 135 kts 271°
2026-05-03 21:25 51.47805 -0.33509 1304 ft 125 kts 271°
2026-05-03 21:25 51.47809 -0.34881 1146 ft 122 kts 272°
2026-05-03 21:25 51.47796 -0.36238 1007 ft 123 kts 269°
2026-05-03 21:26 51.47792 -0.37610 840 ft 123 kts 271°
2026-05-03 21:26 51.47783 -0.38970 689 ft 123 kts 271°
2026-05-03 21:26 51.47788 -0.40339 526 ft 123 kts 269°
2026-05-03 21:26 51.47772 -0.41705 342 ft 122 kts 270°
2026-05-03 21:27 51.47774 -0.43053 171 ft 121 kts 268°
2026-05-03 21:27 51.47768 -0.44338 101 ft 113 kts 269°
2026-05-03 21:27 51.47762 -0.45523 96 ft 83 kts 269°
2026-05-03 21:27 51.47758 -0.46165 96 ft 32 kts 270°
2026-05-03 21:28 51.47757 -0.46332 97 ft 12 kts 269°
2026-05-03 21:28 51.47751 -0.46513 95 ft 21 kts 266°
2026-05-03 21:28 51.47686 -0.46775 98 ft 26 kts 238°
2026-05-03 21:28 51.47588 -0.46911 97 ft 21 kts 199°
2026-05-03 21:29 51.47498 -0.46852 97 ft 16 kts 101°
2026-05-03 21:29 51.47411 -0.46735 95 ft 21 kts 170°
2026-05-03 21:29 51.47354 -0.46727 92 ft 8 kts 176°
2026-05-03 21:29 51.47319 -0.46656 95 ft 7 kts 97°
2026-05-03 21:30 51.47319 -0.46599 92 ft 6 kts 89°
2026-05-03 21:30 51.47319 -0.46580 92 ft 0 kts 91°